Regional Weather Roundup
Issued by NWS Austin/San Antonio, TX

Home | Current Version | Previous Version | Text Only | Print | Product List | Glossary On
Versions: 1 2 3 4 5 6 7 8 9 10 11 12 13 14 15 16 17 18 19 20 21 22 23 24 25 26 27 28 29 30 31 32 33 34 35 36 37 38 39 40 41 42 43 44 45 46 47 48 49 50
904
ASUS44 KEWX 170110
RWREWX
SOUTH TEXAS REGIONAL WEATHER ROUNDUP
NATIONAL WEATHER SERVICE AUSTIN/SAN ANTONIO TX
700 PM CST TUE JAN 16 2018

NOTE: "FAIR" INDICATED FEW OR NO CLOUDS BELOW 12,000 FEET WITH NO
SIGNIFICANT WEATHER AND/OR OBSTRUCTIONS TO VISIBILITY.

* - THESE STATIONS ARE NOT NWS OR FAA STATIONS...AND ARE NOT SUBJECT
    TO NWS AND FAA QUALITY CONTROL.

TXZ171-172-183>190-170200-
TEXAS HILL COUNTRY AND EDWARDS PLATEAU

CITY           SKY/WX    TMP DP  RH WIND       PRES   REMARKS
JUNCTION       CLOUDY    26  -3  28 N8        30.65R WCI  18
*LLANO         CLOUDY    28   1  31 N9        30.73R WCI  20
BURNET         CLOUDY    25   1  35 VRB6      30.69R WCI  18
*HORSESHOE BAY CLOUDY    27   4  37 N8        30.69R WCI  19
*KERRVILLE     CLOUDY    25  -1  33 N14       30.63S WCI  13
*FREDERICKSBRG CLOUDY    25  -5  27 N14       30.64R WCI  13
*ROCKSPRINGS     N/A     25  -2  30 N8        30.64S WCI  16
*BOERNE STAGE  CLOUDY    27   1  33 N12G17    30.65R WCI  16
*CASTROVILLE   CLOUDY    31  13  46 N5        30.70R WCI  26
HONDO          CLOUDY    31  15  52 N12       30.67R WCI  22
*UVALDE        CLOUDY    32   6  32 NE6       30.68R WCI  27
DEL RIO        CLOUDY    35  -1  21 NW6       30.67S WCI  30
LAUGHLIN AFB   CLOUDY    34  -2  21 N9        30.67R WCI  27
CARRIZO SPRGS  CLOUDY    34  12  40 N7        30.69R WCI  28
*EAGLE PASS    CLOUDY    36   0  21 N7        30.68S WCI  30
*FAITH RANCH   CLOUDY    34  12  40 N7        30.68S WCI  28
$$

TXZ173-191>194-202-209-217>225-228-170200-
CENTRAL AND SOUTH CENTRAL TEXAS

CITY           SKY/WX    TMP DP  RH WIND       PRES   REMARKS
GEORGETOWN     CLOUDY    25   5  42 NW8       30.72  WCI  16
AUSTIN/BERGSTM CLOUDY    26  10  50 N16       30.70R WCI  14
AUSTIN/MABRY   CLOUDY    27   3  35 VRB7      30.71R WCI  19
*AUSTIN/EXEC   CLOUDY    25   5  42 N16       30.71R WCI  12
*LAGO VISTA    CLOUDY    25   2  37 N8        30.67R WCI  17
SAN MARCOS     CLOUDY    28  13  53 N18       30.70R WCI  15
NEW BRAUNFELS  CLOUDY    28  11  48 N16       30.67R WCI  16
RANDOLPH AFB   CLOUDY    29   6  37 N15       30.67R WCI  18
PT SAN ANTONIO CLOUDY    30   8  38 N14       30.65R WCI  20
SAN ANTONIO    CLOUDY    29   8  41 N10       30.67R WCI  20
STINSON FIELD  CLOUDY    32  11  41 N12       30.67R WCI  23
*LA GRANGE     CLOUDY    27  13  55 N14G21    30.68R WCI  16
*GIDDINGS      CLOUDY    25  11  55 N13G21    30.69R WCI  13
*GONZALES      CLOUDY    28  17  64 N10G18    30.68S WCI  18
$$

TXZ163>164-176>182-195>201-210>213-226-227-235-170200-
SOUTHEAST TEXAS

CITY           SKY/WX    TMP DP  RH WIND       PRES   REMARKS
COLLEGE STN    CLOUDY    26  12  55 N17       30.70R WCI  13
*BRYAN         CLOUDY    24  10  54 N12G20    30.72R WCI  13
*CALDWELL      CLOUDY    24  11  58 N10G24    30.71R WCI  13
*CROCKETT        N/A     23  10  58 CALM      30.73R
*BRENHAM       CLOUDY    27  17  66 N13G18    30.69S WCI  16
HUNTSVILLE     CLOUDY    24  14  65 N10G17    30.68R WCI  14
CONROE         CLOUDY    24  16  71 N12       30.67R WCI  13
HOUSTON BUSH   CLOUDY    26  17  68 N12G22    30.66R WCI  16
HOUSTON HOBBY  CLOUDY    26  21  81 N18       30.65R WCI  13
*HOUSTON SW AP CLOUDY    26  21  82 MISG      30.67R
PEARLAND       CLOUDY    26  21  81 N14       30.67R WCI  14
HOUSTON HOOKS  CLOUDY    25  16  68 N13G22    30.67R WCI  14
ELLINGTON FLD  CLOUDY    27  21  80 N3        30.67S
SUGAR LAND     CLOUDY    27  17  66 N16       30.66R WCI  15
*HOUSTON EXEC  CLOUDY    25  18  74 CALM      30.68S
*CLEVELAND MUN CLOUDY    26  17  68 N13G23    30.67R WCI  15
*WHARTON       CLOUDY    26  20  77 CALM      30.68R
*COLUMBUS      CLOUDY    26  16  66 N12       30.68S WCI  15
*EAGLE LAKE    CLOUDY    27  21  78 MISG      30.67R
$$

TXZ214>216-236>238-170200-
THE UPPER TEXAS COAST

CITY           SKY/WX    TMP DP  RH WIND       PRES   REMARKS
*ORANGE        FLURRIES  28  25  91 N8        30.63S WCI  19
PORT ARTHUR    MIX PCPN  27  22  81 N13G24    30.62R WCI  16
GALVESTON      MIX PCPN  30  26  85 N23       30.63R WCI  17
ANGLETON       CLOUDY    27  22  81 N10       30.65R WCI  17
*BAY CITY      MIX PCPN  27  24  88 N9G16     30.65R WCI  18
PALACIOS       MIX PCPN  27  22  81 N21       30.67R WCI  13
$$

TXZ229>234-239>247-170200-
TEXAS COASTAL BEND AND RIO GRANDE PLAINS

CITY           SKY/WX    TMP DP  RH WIND       PRES   REMARKS
VICTORIA       CLOUDY    27  20  75 N14       30.69R WCI  16
*BEEVILLE      CLOUDY    29  15  54 N12       30.68R WCI  19
ROCKPORT       CLOUDY    28  22  78 N17       30.67R WCI  16
*PORT ARANSAS  NOT AVBL
*PORT LAVACA   FLURRIES  27  22  82 N15G23    30.68R WCI  16
*INGLESIDE     CLOUDY    30  24  78 N14G20    30.67R WCI  19
CORPUS CHRISTI CLOUDY    29  20  69 N18G28    30.67R WCI  16
CORPUS NAS     CLOUDY    31  23  72 N25G32    30.67R WCI  17
*ROBSTOWN      NOT AVBL
ALICE          CLOUDY    30  20  66 N10       30.68R WCI  21
KINGSVILLE NAS CLOUDY    30  21  69 N17G23    30.69R WCI  18
COTULLA        CLOUDY    33   9  36 NE8       30.70R WCI  26
LAREDO         CLOUDY    33  26  75 N5        30.70R WCI  29
$$

TXZ248>255-170200-
DEEP SOUTH TEXAS

CITY           SKY/WX    TMP DP  RH WIND       PRES   REMARKS
BROWNSVILLE    NOT AVBL
PORT ISABEL    NOT AVBL
*SOUTH PADRE   NOT AVBL
HARLINGEN      NOT AVBL
*HEBBRONVILLE  CLOUDY    28  25  88 N5        30.68R WCI  23
MCALLEN        CLOUDY    34  28  80 N18G26    30.68R WCI  23
*WESLACO       LGT RAIN  31  28  90 N15       30.66R WCI  20
FALFURRIAS     CLOUDY    31  24  74 N9G20     30.69R WCI  23
EDINBURG       CLOUDY    32  30  91 N12G18    30.68R FOG     WCI  23
*ZAPATA        CLOUDY    32  25  74 N6        30.69R WCI  27
$$

TXZ213>215-236>238-242>244-246-247-251-254-255-170200-
CMAN STATIONS

STATION/POSITION TIME  TEMP    WIND        PRES    WAVE
                       AIR SEA DIR/SP/G            HT/PER
                 (UTC) (F)     (DEG/KT/KT) (MB)    (FT/S)
SABINE PASS      0042   29 49  340/ 15/ 23 1037.9
SEA RIM ST PARK  0000   27     360/  8/  9 1036.7
NORTH JETTY/GLS  0042      46  360/ 15/ 18 1036.3
EAGLE POINT      0042   27 45   20/ 10/ 12 1037.7
MORGANS POINT    0048      49   10/  5/  7 1037.9
PORT O`CONNOR    0036   29 38  360/ 24/ 28 1038.8
MALAQUITE BEACH  0036   30 52  340/ 22/ 26 1037.9
BAFFIN BAY       0036   30 48  340/ 20/ 23 1038.5
PORT ISABEL      0036   32 57  330/ 19/ 27 1035.1
$$




USA.gov is the U.S. government's official web portal to all federal, state and local government web resources and services.